Location: Long Barn
(38.0930°N, 120.1344°W)
Time: 12:52:22
(UTC+00:00)

Cosmos 2150 Rocket - Pass Details

Date: 05 August 2024
Orbit: 747 x 804 km, 74.0° (Epoch: 15 September)

Event Time Altitude Azimuth Distance (km) Brightness Sun altitude
Rises 12:19:41 0° 339° (NNW) 3,284 7.4 -9.3°
Reaches altitude 10° 12:22:07 10° 337° (NNW) 2,343 6.6 -8.8°
Maximum altitude 12:27:24 69° 255° (WSW) 828 4.0 -7.9°
Drops below altitude 10° 12:32:33 10° 173° (S) 2,289 6.3 -7.0°
Sets 12:34:54 0° 170° (S) 3,202 7.0 -6.6°
